Flag for Germany Weather past 2 weeks in Schorndorf, Baden-Württemberg, Germany

Now
47 °F

Overcast.


Feels Like: 45 °F
Forecast: 48 / 53 °F
Wind: 5 mph from Southwest

Location: Stuttgart-Echterdingen

Current Time: Mar 29, 2015 at 12:10:44 AM

Latest Report: Mar 29, 2015 at 12:00 AM


Visibility: 25 mi

Pressure: 30.03 "Hg

Humidity: 81%

Dew point: 42 °F

Location of SchorndorfLocation

Historic Weather in Schorndorf — Graph

°F

Schorndorf temperature yesterday

Maximum temperature yesterday: 56 °F (at 3:00 PM)
Minimum temperature yesterday: 33 °F (at 6:00 AM)
Average temperature yesterday: 44 °F

Past Weeks' High & Low Weather Summary

 TemperatureHumidityPressure
High65 °F (Mar 17, 3:00 PM)97% (Mar 24, 6:00 AM)30.30 "Hg (Mar 24, 6:00 AM)
Low30 °F (Mar 24, 7:00 AM)29% (Mar 17, 4:00 PM)29.56 "Hg (Mar 25, 3:00 PM)
Average44 °F67%30.08 "Hg
* Reported Mar 13 9:00 PM — Mar 28 9:00 PM, Schorndorf, Weather by CustomWeather, © 2015

Note: Actual official high and low records may vary slightly from our data, if they occured in-between our weather recording intervals... More about our weather records

Advertising

Schorndorf weather history for previous 24 hours

 ConditionsComfort  
Time TempWeatherWind HumidityBarometerVisibility
9:00 PM
Sat, Mar 28
46 °FLight rain. Overcast.3 mph79%30.06 "Hg9 mi
8:00 PM46 °FLight rain. Overcast.5 mph81%30.07 "Hg16 mi
7:00 PM47 °FLight rain. Overcast.3 mph76%30.07 "Hg16 mi
6:00 PM50 °FLight rain. Overcast.7 mph59%30.06 "Hg19 mi
5:00 PM54 °FOvercast.6 mph42%30.04 "Hg25 mi
3:00 PM56 °FPartly sunny.5 mph36%30.06 "Hg19 mi
2:00 PM54 °FPassing clouds.5 mph39%30.09 "Hg25 mi
1:00 PM52 °FPassing clouds.3 mph41%30.13 "Hg25 mi
12:00 PM49 °FPassing clouds.5 mph46%30.17 "Hg28 mi
11:00 AM48 °FPassing clouds.3 mph46%30.21 "Hg28 mi
9:00 AM44 °FScattered clouds.3 mph60%30.25 "Hg31 mi
8:00 AM37 °FPartly sunny.3 mph76%30.28 "Hg37 mi
7:00 AM34 °FPartly sunny.3 mph81%30.29 "Hg31 mi
6:00 AM33 °FPartly sunny.3 mph76%30.29 "Hg16 mi
5:00 AM37 °FOvercast.3 mph73%30.29 "Hg16 mi
3:00 AM38 °FOvercast.3 mph72%30.29 "Hg16 mi
2:00 AM35 °FClear.3 mph78%30.30 "Hg16 mi
1:00 AM35 °FOvercast.5 mph76%30.29 "Hg16 mi
12:00 AM38 °FPassing clouds.3 mph71%30.29 "Hg16 mi
Weather by CustomWeather, © 2015

See weather overviewHow to use our weather pages